| time (UTC) | temp F | wind direction | speed MPH | gust MPH | rain 1hr in | rain 24hr in | rain mn in | humidity % | barometer mb |
| 20260504081300 | 44 | 0 | 0.0 | 0.0 | 0.00 | 0.00 | 0.00 | 70 | 944.6 |
| 20260504060107 | 48 | 0 | 0.0 | 1.0 | 0.00 | 0.00 | 0.00 | 58 | 944.6 |
| 20260504050336 | 50 | 219 | 2.0 | 6.0 | 0.00 | 0.00 | 0.00 | 54 | 944.6 |
| 20260504045335 | 50 | 0 | 0.0 | 2.0 | 0.00 | 0.00 | 0.00 | 54 | 944.6 |
| 20260504044336 | 50 | 0 | 0.0 | 4.0 | 0.00 | 0.00 | 0.00 | 54 | 944.6 |
| 20260504043335 | 50 | 0 | 0.0 | 7.0 | 0.00 | 0.00 | 0.00 | 55 | 944.6 |
| 20260504041941 | 50 | 0 | 0.0 | 4.0 | 0.00 | 0.00 | 0.00 | 54 | 944.6 |
| 20260504040941 | 49 | 0 | 0.0 | 2.0 | 0.00 | 0.00 | 0.00 | 55 | 944.6 |
| 20260504035941 | 49 | 0 | 0.0 | 3.0 | 0.00 | 0.00 | 0.00 | 56 | 944.6 |
| 20260504034941 | 49 | 0 | 0.0 | 3.0 | 0.00 | 0.00 | 0.00 | 56 | 944.6 |
| 20260504033546 | 49 | 0 | 0.0 | 0.0 | 0.00 | 0.00 | 0.00 | 56 | 944.6 |
| 20260504032546 | 49 | 0 | 0.0 | 1.0 | 0.00 | 0.00 | 0.00 | 56 | 944.6 |
| 20260504031545 | 49 | 0 | 0.0 | 1.0 | 0.00 | 0.00 | 0.00 | 56 | 944.6 |
| 20260504030546 | 49 | 0 | 0.0 | 0.0 | 0.00 | 0.00 | 0.00 | 55 | 944.6 |
| 20260504025153 | 50 | 0 | 0.0 | 0.0 | 0.00 | 0.00 | 0.00 | 54 | 944.6 |
| 20260504024153 | 50 | 0 | 0.0 | 0.0 | 0.00 | 0.00 | 0.00 | 54 | 944.6 |
| 20260504023153 | 50 | 0 | 0.0 | 0.0 | 0.00 | 0.00 | 0.00 | 53 | 944.6 |
| 20260504022153 | 51 | 0 | 0.0 | 1.0 | 0.00 | 0.00 | 0.00 | 53 | 944.6 |
| 20260504020750 | 51 | 0 | 0.0 | 0.0 | 0.00 | 0.00 | 0.00 | 54 | 944.6 |
| 20260504015751 | 51 | 0 | 0.0 | 0.0 | 0.00 | 0.00 | 0.00 | 52 | 944.6 |
| 20260504014750 | 51 | 0 | 0.0 | 1.0 | 0.00 | 0.00 | 0.00 | 51 | 944.6 |
| 20260504013750 | 52 | 0 | 0.0 | 0.0 | 0.00 | 0.00 | 0.00 | 51 | 944.6 |
| 20260504012345 | 52 | 0 | 0.0 | 0.0 | 0.00 | 0.00 | 0.00 | 49 | 944.6 |
| 20260504011345 | 53 | 0 | 0.0 | 2.0 | 0.00 | 0.00 | 0.00 | 49 | 944.6 |
| 20260504010345 | 53 | 0 | 0.0 | 0.0 | 0.00 | 0.00 | 0.00 | 48 | 944.6 |
| 20260504005345 | 54 | 0 | 0.0 | 0.0 | 0.00 | 0.00 | 0.00 | 47 | 944.6 |
| 20260504003941 | 54 | 0 | 0.0 | 1.0 | 0.00 | 0.00 | 0.00 | 46 | 944.6 |
| 20260504002940 | 54 | 0 | 0.0 | 0.0 | 0.00 | 0.00 | 0.00 | 46 | 944.6 |
| 20260504001940 | 55 | 0 | 0.0 | 0.0 | 0.00 | 0.00 | 0.00 | 45 | 944.6 |
| 20260504000940 | 56 | 0 | 0.0 | 0.0 | 0.00 | 0.00 | 0.00 | 44 | 944.6 |
| 20260503235541 | 57 | 0 | 0.0 | 3.0 | 0.00 | 0.00 | 0.00 | 42 | 944.6 |
| 20260503234542 | 58 | 0 | 0.0 | 5.0 | 0.00 | 0.00 | 0.00 | 41 | 944.6 |
| 20260503233541 | 58 | 0 | 0.0 | 4.0 | 0.00 | 0.00 | 0.00 | 40 | 944.6 |
| 20260503232542 | 59 | 228 | 3.0 | 9.0 | 0.00 | 0.00 | 0.00 | 39 | 944.6 |
| 20260503231134 | 59 | 263 | 1.0 | 9.0 | 0.00 | 0.00 | 0.00 | 38 | 944.6 |
| 20260503230135 | 59 | 242 | 6.0 | 14.0 | 0.00 | 0.00 | 0.00 | 38 | 944.6 |
| 20260503225135 | 59 | 269 | 4.0 | 14.0 | 0.00 | 0.00 | 0.00 | 38 | 944.6 |
| 20260503224134 | 59 | 222 | 1.0 | 11.0 | 0.00 | 0.00 | 0.00 | 38 | 944.6 |
| 20260503222813 | 60 | 214 | 1.0 | 11.0 | 0.00 | 0.00 | 0.00 | 37 | 944.6 |
| 20260503221814 | 60 | 259 | 5.0 | 15.0 | 0.00 | 0.00 | 0.00 | 37 | 944.6 |
| 20260503220813 | 60 | 317 | 4.0 | 26.0 | 0.00 | 0.00 | 0.00 | 38 | 944.6 |
| 20260503215814 | 60 | 301 | 3.0 | 10.0 | 0.00 | 0.00 | 0.00 | 37 | 944.6 |
| 20260503214813 | 60 | 271 | 2.0 | 17.0 | 0.00 | 0.00 | 0.00 | 38 | 944.6 |
| 20260503213813 | 59 | 316 | 7.0 | 14.0 | 0.00 | 0.00 | 0.00 | 36 | 944.6 |
| 20260503212411 | 59 | 278 | 6.0 | 13.0 | 0.00 | 0.00 | 0.00 | 37 | 944.6 |
| 20260503211410 | 59 | 309 | 4.0 | 17.0 | 0.00 | 0.00 | 0.00 | 36 | 944.6 |
| 20260503210411 | 59 | 280 | 4.0 | 12.0 | 0.00 | 0.00 | 0.00 | 37 | 944.6 |
| 20260503205410 | 59 | 283 | 1.0 | 14.0 | 0.00 | 0.00 | 0.00 | 38 | 944.6 |
| 20260503204006 | 58 | 277 | 5.0 | 17.0 | 0.00 | 0.00 | 0.00 | 37 | 944.6 |
| 20260503203006 | 58 | 241 | 10.0 | 18.0 | 0.00 | 0.00 | 0.00 | 36 | 944.6 |
| 20260503202005 | 59 | 303 | 5.0 | 13.0 | 0.00 | 0.00 | 0.00 | 38 | 944.6 |
| 20260503201006 | 58 | 228 | 11.0 | 25.0 | 0.00 | 0.00 | 0.00 | 40 | 944.6 |
| 20260503195600 | 58 | 242 | 7.0 | 21.0 | 0.00 | 0.00 | 0.00 | 39 | 944.6 |
| 20260503194601 | 57 | 262 | 9.0 | 26.0 | 0.00 | 0.00 | 0.00 | 39 | 944.6 |
| 20260503193601 | 57 | 282 | 5.0 | 34.0 | 0.00 | 0.00 | 0.00 | 40 | 944.6 |
| 20260503192601 | 57 | 298 | 14.0 | 30.0 | 0.00 | 0.00 | 0.00 | 40 | 944.6 |
| 20260503191154 | 56 | 272 | 7.0 | 25.0 | 0.00 | 0.00 | 0.00 | 42 | 944.6 |
| 20260503190153 | 56 | 316 | 4.0 | 26.0 | 0.00 | 0.00 | 0.00 | 40 | 944.6 |
| 20260503185154 | 57 | 275 | 8.0 | 25.0 | 0.00 | 0.00 | 0.00 | 42 | 944.6 |
| 20260503184153 | 55 | 286 | 8.0 | 21.0 | 0.00 | 0.00 | 0.00 | 41 | 944.6 |
| 20260503182749 | 55 | 337 | 25.0 | 37.0 | 0.00 | 0.00 | 0.00 | 41 | 944.6 |
| 20260503181749 | 55 | 304 | 10.0 | 37.0 | 0.00 | 0.00 | 0.00 | 42 | 944.6 |
| 20260503180749 | 54 | 299 | 11.0 | 29.0 | 0.00 | 0.00 | 0.00 | 41 | 944.6 |
| 20260503175749 | 55 | 240 | 8.0 | 19.0 | 0.00 | 0.00 | 0.00 | 42 | 944.6 |
| 20260503174404 | 53 | 294 | 7.0 | 27.0 | 0.00 | 0.00 | 0.00 | 42 | 944.6 |
| 20260503173404 | 54 | 267 | 13.0 | 32.0 | 0.00 | 0.00 | 0.00 | 42 | 944.6 |
| 20260503172404 | 54 | 330 | 18.0 | 34.0 | 0.00 | 0.00 | 0.00 | 41 | 944.6 |
| 20260503171404 | 54 | 323 | 8.0 | 15.0 | 0.00 | 0.00 | 0.00 | 42 | 944.6 |
| 20260503150149 | 49 | 345 | 15.0 | 31.0 | 0.00 | 0.00 | 0.00 | 54 | 944.6 |
| 20260503130937 | 46 | 331 | 7.0 | 19.0 | 0.00 | 0.00 | 0.00 | 63 | 944.6 |
| 20260503110752 | 43 | 335 | 2.0 | 8.0 | 0.00 | 0.00 | 0.00 | 70 | 944.6 |